Time,TemperatureF,DewpointF,PressureIn,WindDirection,WindDirectionDegrees,WindSpeedMPH,WindSpeedGustMPH,Humidity,HourlyPrecipIn,Conditions,Clouds,dailyrainin,SoftwareType,DateUTC
2013-02-25 00:01:00,26.0,24.0,30.16,NW,321,4.0,4.0,93,0.00,,,-99.99,,2013-02-25 05:01:00,
2013-02-25 00:11:00,26.0,24.0,30.16,NW,321,4.0,4.0,93,0.00,,,-99.99,,2013-02-25 05:11:00,
2013-02-25 00:22:00,26.0,24.0,30.16,NW,321,4.0,4.0,93,0.00,,,-99.99,,2013-02-25 05:22:00,
2013-02-25 00:32:00,26.0,24.0,30.16,NW,326,3.0,4.0,91,0.00,,,-99.99,,2013-02-25 05:32:00,
2013-02-25 00:42:00,26.0,24.0,30.16,NW,326,3.0,4.0,91,0.00,,,-99.99,,2013-02-25 05:42:00,
2013-02-25 00:52:00,26.0,24.0,30.15,NNW,338,2.0,4.0,91,0.00,,,-99.99,,2013-02-25 05:52:00,
2013-02-25 01:02:00,26.0,23.0,30.15,North,1,0.0,1.0,89,0.00,,,-99.99,,2013-02-25 06:02:00,
2013-02-25 01:11:00,26.0,23.0,30.15,North,1,0.0,1.0,89,0.00,,,-99.99,,2013-02-25 06:11:00,
2013-02-25 01:21:00,26.0,23.0,30.15,North,1,0.0,1.0,89,0.00,,,-99.99,,2013-02-25 06:21:00,
2013-02-25 01:32:00,26.0,22.0,30.16,NNW,329,2.0,3.0,86,0.00,,,-99.99,,2013-02-25 06:32:00,
2013-02-25 02:01:00,27.0,23.0,30.16,West,281,0.0,3.0,83,0.00,,,-99.99,,2013-02-25 07:01:00,
2013-02-25 02:32:00,30.0,17.0,30.15,WNW,301,0.0,1.0,58,0.00,,,-99.99,,2013-02-25 07:32:00,
2013-02-25 02:42:00,30.0,17.0,30.15,WNW,301,0.0,1.0,58,0.00,,,-99.99,,2013-02-25 07:42:00,
2013-02-25 02:52:00,30.0,17.0,30.15,WNW,301,0.0,1.0,58,0.00,,,-99.99,,2013-02-25 07:52:00,
2013-02-25 03:01:00,32.0,15.0,30.15,NNW,345,0.0,0.0,49,0.00,,,-99.99,,2013-02-25 08:01:00,
2013-02-25 03:11:00,34.0,14.0,30.15,WNW,287,0.0,1.0,44,0.00,,,-99.99,,2013-02-25 08:11:00,
2013-02-25 03:22:00,34.0,14.0,30.15,WNW,287,0.0,1.0,44,0.00,,,-99.99,,2013-02-25 08:22:00,
2013-02-25 03:32:00,35.0,18.0,30.15,West,278,3.0,8.0,50,0.00,,,-99.99,,2013-02-25 08:32:00,
2013-02-25 03:42:00,35.0,18.0,30.15,West,278,3.0,8.0,50,0.00,,,-99.99,,2013-02-25 08:42:00,
2013-02-25 03:52:00,35.0,18.0,30.15,West,278,3.0,8.0,50,0.00,,,-99.99,,2013-02-25 08:52:00,
2013-02-25 04:02:00,35.0,18.0,30.15,West,278,3.0,8.0,50,0.00,,,-99.99,,2013-02-25 09:02:00,
2013-02-25 04:21:00,37.0,21.0,30.14,West,266,0.0,5.0,51,0.00,,,-99.99,,2013-02-25 09:21:00,
2013-02-25 04:32:00,37.0,20.0,30.14,West,267,3.0,3.0,50,0.00,,,-99.99,,2013-02-25 09:32:00,
2013-02-25 04:42:00,37.0,20.0,30.14,West,267,3.0,3.0,50,0.00,,,-99.99,,2013-02-25 09:42:00,
2013-02-25 04:52:00,37.0,20.0,30.14,West,267,3.0,3.0,50,0.00,,,-99.99,,2013-02-25 09:52:00,
2013-02-25 05:01:00,37.0,21.0,30.15,WSW,249,0.0,0.0,51,0.00,,,-99.99,,2013-02-25 10:01:00,
2013-02-25 05:11:00,37.0,21.0,30.15,SSW,208,0.0,2.0,51,0.00,,,-99.99,,2013-02-25 10:11:00,
2013-02-25 05:21:00,37.0,21.0,30.15,SSW,208,0.0,2.0,51,0.00,,,-99.99,,2013-02-25 10:21:00,
2013-02-25 05:32:00,36.0,20.0,30.15,South,186,0.0,1.0,51,0.00,,,-99.99,,2013-02-25 10:32:00,
2013-02-25 05:42:00,36.0,20.0,30.15,South,186,0.0,1.0,51,0.00,,,-99.99,,2013-02-25 10:42:00,
2013-02-25 05:52:00,36.0,20.0,30.16,South,186,0.0,3.0,52,0.00,,,-99.99,,2013-02-25 10:52:00,
2013-02-25 06:01:00,36.0,21.0,30.16,SSE,159,0.0,5.0,54,0.00,,,-99.99,,2013-02-25 11:01:00,
2013-02-25 06:11:00,36.0,21.0,30.16,SSE,159,0.0,5.0,54,0.00,,,-99.99,,2013-02-25 11:11:00,
2013-02-25 06:22:00,36.0,21.0,30.16,SSE,159,0.0,5.0,54,0.00,,,-99.99,,2013-02-25 11:22:00,
2013-02-25 06:32:00,32.0,22.0,30.16,SSE,156,4.0,6.0,67,0.00,,,-99.99,,2013-02-25 11:32:00,
2013-02-25 06:42:00,32.0,22.0,30.16,SSE,156,4.0,6.0,67,0.00,,,-99.99,,2013-02-25 11:42:00,
2013-02-25 06:52:00,32.0,22.0,30.16,SSE,156,4.0,6.0,67,0.00,,,-99.99,,2013-02-25 11:52:00,
2013-02-25 07:02:00,30.0,23.0,30.16,South,184,2.0,7.0,74,0.00,,,-99.99,,2013-02-25 12:02:00,
2013-02-25 07:11:00,30.0,23.0,30.16,South,184,2.0,7.0,74,0.00,,,-99.99,,2013-02-25 12:11:00,
2013-02-25 07:22:00,29.0,22.0,30.17,South,184,4.0,8.0,75,0.00,,,-99.99,,2013-02-25 12:22:00,
2013-02-25 07:32:00,29.0,23.0,30.17,South,176,4.0,6.0,78,0.00,,,-99.99,,2013-02-25 12:32:00,
2013-02-25 07:42:00,29.0,23.0,30.17,South,176,4.0,6.0,78,0.00,,,-99.99,,2013-02-25 12:42:00,
2013-02-25 07:54:00,29.0,23.0,30.17,South,176,4.0,6.0,78,0.00,,,-99.99,,2013-02-25 12:54:00,
2013-02-25 08:02:00,28.0,23.0,30.17,South,188,6.0,7.0,82,0.00,,,-99.99,,2013-02-25 13:02:00,
2013-02-25 08:12:00,28.0,23.0,30.17,South,188,6.0,7.0,82,0.00,,,-99.99,,2013-02-25 13:12:00,
2013-02-25 08:23:00,27.0,23.0,30.18,SSW,198,7.0,9.0,83,0.00,,,-99.99,,2013-02-25 13:23:00,
2013-02-25 08:32:00,27.0,23.0,30.20,South,180,4.0,8.0,85,0.00,,,-99.99,,2013-02-25 13:32:00,
2013-02-25 08:42:00,27.0,23.0,30.20,South,180,4.0,8.0,85,0.00,,,-99.99,,2013-02-25 13:42:00,
2013-02-25 08:52:00,26.0,22.0,30.20,SSE,165,4.0,5.0,86,0.00,,,-99.99,,2013-02-25 13:52:00,
2013-02-25 09:03:00,26.0,23.0,30.21,SSE,160,6.0,7.0,87,0.00,,,-99.99,,2013-02-25 14:03:00,
2013-02-25 09:17:00,26.0,23.0,30.21,SSE,160,6.0,7.0,87,0.00,,,-99.99,,2013-02-25 14:17:00,
2013-02-25 09:32:00,26.0,23.0,30.21,South,176,7.0,8.0,87,0.00,,,-99.99,,2013-02-25 14:32:00,
2013-02-25 09:42:00,26.0,23.0,30.21,South,176,7.0,8.0,87,0.00,,,-99.99,,2013-02-25 14:42:00,
2013-02-25 09:52:00,27.0,24.0,30.22,SSW,201,6.0,9.0,87,0.00,,,-99.99,,2013-02-25 14:52:00,
2013-02-25 10:03:00,27.0,24.0,30.22,South,170,3.0,8.0,87,0.00,,,-99.99,,2013-02-25 15:03:00,
2013-02-25 10:11:00,27.0,24.0,30.22,South,170,3.0,8.0,87,0.00,,,-99.99,,2013-02-25 15:11:00,
2013-02-25 10:22:00,27.0,24.0,30.22,South,170,3.0,8.0,87,0.00,,,-99.99,,2013-02-25 15:22:00,
2013-02-25 10:32:00,27.0,24.0,30.21,SSW,201,7.0,8.0,87,0.00,,,-99.99,,2013-02-25 15:32:00,
2013-02-25 10:42:00,27.0,24.0,30.21,SSW,201,7.0,8.0,87,0.00,,,-99.99,,2013-02-25 15:42:00,
2013-02-25 10:52:00,27.0,24.0,30.21,South,190,6.0,9.0,88,0.00,,,-99.99,,2013-02-25 15:52:00,
2013-02-25 11:02:00,27.0,24.0,30.21,SSW,197,7.0,8.0,88,0.00,,,-99.99,,2013-02-25 16:02:00,
2013-02-25 11:12:00,27.0,24.0,30.21,SSW,197,7.0,8.0,88,0.00,,,-99.99,,2013-02-25 16:12:00,
2013-02-25 11:22:00,27.0,24.0,30.21,SSW,197,7.0,8.0,88,0.00,,,-99.99,,2013-02-25 16:22:00,
2013-02-25 11:32:00,27.0,24.0,30.22,SSE,163,6.0,7.0,89,0.00,,,-99.99,,2013-02-25 16:32:00,
2013-02-25 11:42:00,27.0,24.0,30.22,SSE,163,6.0,7.0,89,0.00,,,-99.99,,2013-02-25 16:42:00,
2013-02-25 11:52:00,27.0,24.0,30.22,South,169,7.0,9.0,89,0.00,,,-99.99,,2013-02-25 16:52:00,
2013-02-25 12:02:00,27.0,24.0,30.21,SSE,162,4.0,8.0,88,0.00,,,-99.99,,2013-02-25 17:02:00,
2013-02-25 12:11:00,27.0,24.0,30.21,SSE,162,4.0,8.0,88,0.00,,,-99.99,,2013-02-25 17:11:00,
2013-02-25 12:21:00,28.0,24.0,30.21,South,177,3.0,7.0,86,0.00,,,-99.99,,2013-02-25 17:21:00,
2013-02-25 12:32:00,29.0,25.0,30.21,SE,131,6.0,7.0,85,0.00,,,-99.99,,2013-02-25 17:32:00,
2013-02-25 12:42:00,29.0,25.0,30.21,SE,131,6.0,7.0,85,0.00,,,-99.99,,2013-02-25 17:42:00,
2013-02-25 12:52:00,30.0,25.0,30.21,SE,136,3.0,5.0,83,0.00,,,-99.99,,2013-02-25 17:52:00,
2013-02-25 13:02:00,31.0,26.0,30.21,South,181,3.0,6.0,81,0.00,,,-99.99,,2013-02-25 18:02:00,
2013-02-25 13:12:00,31.0,26.0,30.21,South,181,3.0,6.0,81,0.00,,,-99.99,,2013-02-25 18:12:00,
2013-02-25 13:21:00,31.0,26.0,30.21,South,181,3.0,6.0,81,0.00,,,-99.99,,2013-02-25 18:21:00,
2013-02-25 13:33:00,32.0,26.0,30.18,SSE,166,6.0,6.0,79,0.00,,,-99.99,,2013-02-25 18:33:00,
2013-02-25 13:42:00,32.0,26.0,30.18,SSE,166,6.0,6.0,79,0.00,,,-99.99,,2013-02-25 18:42:00,
2013-02-25 13:52:00,33.0,27.0,30.18,SSW,193,4.0,7.0,79,0.00,,,-99.99,,2013-02-25 18:52:00,
2013-02-25 14:01:00,33.0,27.0,30.20,South,190,4.0,8.0,79,0.01,,,-99.99,,2013-02-25 19:01:00,
2013-02-25 14:11:00,33.0,27.0,30.20,South,190,4.0,8.0,79,0.01,,,-99.99,,2013-02-25 19:11:00,
2013-02-25 14:21:00,33.0,27.0,30.20,South,190,4.0,8.0,79,0.01,,,-99.99,,2013-02-25 19:21:00,
2013-02-25 14:32:00,33.0,28.0,30.18,SSE,150,8.0,8.0,81,0.01,,,-99.99,,2013-02-25 19:32:00,
2013-02-25 14:42:00,33.0,28.0,30.18,SSE,150,8.0,8.0,81,0.01,,,-99.99,,2013-02-25 19:42:00,
2013-02-25 14:52:00,33.0,28.0,30.18,SSE,150,8.0,8.0,81,0.01,,,-99.99,,2013-02-25 19:52:00,
2013-02-25 15:01:00,33.0,28.0,30.18,SSE,150,8.0,8.0,81,0.01,,,-99.99,,2013-02-25 20:01:00,
2013-02-25 15:11:00,33.0,28.0,30.18,SSE,150,8.0,8.0,81,0.01,,,-99.99,,2013-02-25 20:11:00,
2013-02-25 15:32:00,34.0,28.0,30.18,SSW,210,4.0,7.0,77,0.00,,,-99.99,,2013-02-25 20:32:00,
2013-02-25 15:42:00,34.0,28.0,30.18,SSW,210,4.0,7.0,77,0.00,,,-99.99,,2013-02-25 20:42:00,
2013-02-25 15:52:00,34.0,28.0,30.18,SSW,210,4.0,7.0,77,0.00,,,-99.99,,2013-02-25 20:52:00,
2013-02-25 16:02:00,37.0,29.0,30.17,SSE,162,4.0,4.0,74,0.00,,,-99.99,,2013-02-25 21:02:00,
2013-02-25 16:11:00,37.0,29.0,30.17,SSE,162,4.0,4.0,74,0.00,,,-99.99,,2013-02-25 21:11:00,
2013-02-25 16:21:00,38.0,30.0,30.17,SSW,198,0.0,6.0,74,0.00,,,-99.99,,2013-02-25 21:21:00,
2013-02-25 16:32:00,39.0,31.0,30.17,SW,224,5.0,5.0,72,0.00,,,-99.99,,2013-02-25 21:32:00,
2013-02-25 16:42:00,39.0,31.0,30.17,SW,224,5.0,5.0,72,0.00,,,-99.99,,2013-02-25 21:42:00,
2013-02-25 16:52:00,39.0,31.0,30.17,SW,225,2.0,7.0,72,0.00,,,-99.99,,2013-02-25 21:52:00,
2013-02-25 17:01:00,39.0,31.0,30.17,SSW,201,5.0,9.0,73,0.00,,,-99.99,,2013-02-25 22:01:00,
2013-02-25 17:11:00,39.0,31.0,30.17,SSW,201,5.0,9.0,73,0.00,,,-99.99,,2013-02-25 22:11:00,
2013-02-25 17:21:00,39.0,31.0,30.17,SSW,201,5.0,9.0,73,0.00,,,-99.99,,2013-02-25 22:21:00,
2013-02-25 17:32:00,35.0,29.0,30.18,SE,142,0.0,9.0,78,0.00,,,-99.99,,2013-02-25 22:32:00,
2013-02-25 17:42:00,35.0,29.0,30.18,SE,142,0.0,9.0,78,0.00,,,-99.99,,2013-02-25 22:42:00,
2013-02-25 17:52:00,35.0,29.0,30.18,SE,142,0.0,9.0,78,0.00,,,-99.99,,2013-02-25 22:52:00,
2013-02-25 18:01:00,33.0,28.0,30.17,SSE,158,3.0,4.0,81,0.00,,,-99.99,,2013-02-25 23:01:00,
2013-02-25 18:11:00,33.0,28.0,30.17,SSE,158,3.0,4.0,81,0.00,,,-99.99,,2013-02-25 23:11:00,
2013-02-25 18:22:00,32.0,28.0,30.16,SSE,148,3.0,7.0,84,0.00,,,-99.99,,2013-02-25 23:22:00,
2013-02-25 18:32:00,31.0,27.0,30.16,SSW,207,7.0,9.0,86,0.00,,,-99.99,,2013-02-25 23:32:00,
2013-02-25 18:42:00,31.0,27.0,30.16,SSW,207,7.0,9.0,86,0.00,,,-99.99,,2013-02-25 23:42:00,
2013-02-25 18:52:00,31.0,28.0,30.16,South,169,5.0,7.0,87,0.00,,,-99.99,,2013-02-25 23:52:00,
2013-02-25 19:02:00,30.0,27.0,30.17,SSE,167,5.0,9.0,89,0.00,,,-99.99,,2013-02-26 00:02:00,
2013-02-25 19:12:00,30.0,27.0,30.17,SSE,167,5.0,9.0,89,0.00,,,-99.99,,2013-02-26 00:12:00,
2013-02-25 19:22:00,29.0,26.0,30.17,SSE,156,8.0,14.0,90,0.00,,,-99.99,,2013-02-26 00:22:00,
2013-02-25 19:32:00,28.0,26.0,30.16,SSE,165,5.0,8.0,92,0.00,,,-99.99,,2013-02-26 00:32:00,
2013-02-25 19:42:00,28.0,26.0,30.16,SSE,165,5.0,8.0,92,0.00,,,-99.99,,2013-02-26 00:42:00,
2013-02-25 19:51:00,28.0,26.0,30.17,South,176,9.0,11.0,93,0.00,,,-99.99,,2013-02-26 00:51:00,
2013-02-25 20:02:00,28.0,26.0,30.16,South,177,6.0,12.0,92,0.00,,,-99.99,,2013-02-26 01:02:00,
2013-02-25 20:11:00,28.0,26.0,30.16,South,177,6.0,12.0,92,0.00,,,-99.99,,2013-02-26 01:11:00,
2013-02-25 20:21:00,27.0,26.0,30.16,SSE,162,5.0,13.0,94,0.00,,,-99.99,,2013-02-26 01:21:00,
2013-02-25 20:32:00,26.0,25.0,30.17,SSE,149,12.0,15.0,95,0.00,,,-99.99,,2013-02-26 01:32:00,
2013-02-25 20:42:00,26.0,25.0,30.17,SSE,149,12.0,15.0,95,0.00,,,-99.99,,2013-02-26 01:42:00,
2013-02-25 20:51:00,26.0,25.0,30.17,SSE,149,12.0,15.0,95,0.00,,,-99.99,,2013-02-26 01:51:00,
2013-02-25 21:01:00,26.0,25.0,30.15,South,174,13.0,18.0,96,0.00,,,-99.99,,2013-02-26 02:01:00,
2013-02-25 21:11:00,26.0,25.0,30.15,South,174,13.0,18.0,96,0.00,,,-99.99,,2013-02-26 02:11:00,
2013-02-25 21:22:00,26.0,25.0,30.16,South,190,10.0,17.0,97,0.00,,,-99.99,,2013-02-26 02:22:00,
2013-02-25 21:32:00,26.0,25.0,30.15,SSE,160,10.0,21.0,97,0.00,,,-99.99,,2013-02-26 02:32:00,
2013-02-25 21:42:00,26.0,25.0,30.15,SSE,160,10.0,21.0,97,0.00,,,-99.99,,2013-02-26 02:42:00,
2013-02-25 21:52:00,26.0,25.0,30.15,SSE,160,10.0,21.0,97,0.00,,,-99.99,,2013-02-26 02:52:00,
2013-02-25 22:02:00,25.0,24.0,30.14,SSE,156,15.0,23.0,97,0.00,,,-99.99,,2013-02-26 03:02:00,
2013-02-25 22:11:00,25.0,24.0,30.14,SSE,156,15.0,23.0,97,0.00,,,-99.99,,2013-02-26 03:11:00,
2013-02-25 22:22:00,25.0,24.0,30.16,South,180,8.0,15.0,97,0.00,,,-99.99,,2013-02-26 03:22:00,
2013-02-25 22:32:00,25.0,24.0,30.15,South,181,10.0,21.0,97,0.00,,,-99.99,,2013-02-26 03:32:00,
2013-02-25 22:42:00,25.0,24.0,30.15,South,181,10.0,21.0,97,0.00,,,-99.99,,2013-02-26 03:42:00,
2013-02-25 22:52:00,24.0,24.0,30.15,SSE,160,15.0,20.0,98,0.00,,,-99.99,,2013-02-26 03:52:00,
2013-02-25 23:01:00,24.0,24.0,30.14,South,180,12.0,18.0,98,0.00,,,-99.99,,2013-02-26 04:01:00,
2013-02-25 23:11:00,24.0,24.0,30.14,South,180,12.0,18.0,98,0.00,,,-99.99,,2013-02-26 04:11:00,
2013-02-25 23:22:00,24.0,24.0,30.14,South,180,12.0,18.0,98,0.00,,,-99.99,,2013-02-26 04:22:00,
2013-02-25 23:32:00,23.0,23.0,30.14,SE,146,10.0,21.0,98,0.00,,,-99.99,,2013-02-26 04:32:00,
2013-02-25 23:42:00,23.0,23.0,30.14,SE,146,10.0,21.0,98,0.00,,,-99.99,,2013-02-26 04:42:00,
2013-02-25 23:52:00,23.0,23.0,30.13,SSE,148,11.0,22.0,98,0.00,,,-99.99,,2013-02-26 04:52:00,